Stations météo

réclame
Mon MeteoGroup
Grenoble/St.Geoirs, France (7486): Température de l'air & dewpoint: 15.08.2018 06:00:00 - 21.08.2018 06:00:00 (CEST)Grenoble/St.Geoirs, France (7486): Température de l'air 5cm: 15.08.2018 06:00:00 - 21.08.2018 06:00:00 (CEST)Grenoble/St.Geoirs, France (7486): Température de l'air -20cm & Température de l'air -100cm: 15.08.2018 06:00:00 - 21.08.2018 06:00:00 (CEST)Grenoble/St.Geoirs, France (7486): Vitesse du vent & gusts: 15.08.2018 06:00:00 - 21.08.2018 06:00:00 (CEST)Grenoble/St.Geoirs, France (7486): Direction du vent: 15.08.2018 06:00:00 - 21.08.2018 06:00:00 (CEST)Grenoble/St.Geoirs, France (7486): reduced air pressure: 15.08.2018 06:00:00 - 21.08.2018 06:00:00 (CEST)Grenoble/St.Geoirs, France (7486): visibility: 15.08.2018 06:00:00 - 21.08.2018 06:00:00 (CEST)Grenoble/St.Geoirs, France (7486): Ensoleillement: 15.08.2018 06:00:00 - 21.08.2018 06:00:00 (CEST)Grenoble/St.Geoirs, France (7486): Quantités de précipitations: 15.08.2018 06:00:00 - 21.08.2018 06:00:00 (CEST)
Date & Time tt [°C] td [°C] tt 5cm [°C] tt -20cm [°C] tt -100cm [°C] ff [km/h] ff [knt] fx [km/h] fx [knt] dd ppp [hPa] vv [km] sd [min] rr [mm]
21.08.2018 06:00:00 15,5 13,9 11,7 22,8 20,2 0 0 6 3 N 1018,7 19 0 0,0
21.08.2018 05:00:00 16,2 13,7 12,8 22,9 20,2 3 2 7 4 SSE 1018,5 21 0 0,0
21.08.2018 04:00:00 17,2 13,9 13,4 23,0 20,2 4 2 12 7 SSE 1018,3 23 0 0,0
21.08.2018 03:00:00 19,1 14,4 14,6 23,1 20,2 7 4 13 7 W 1017,9 31 0 0,0
21.08.2018 02:00:00 19,0 13,6 14,9 23,2 20,2 2 1 15 8 E 1018,1 28 0 0,0
21.08.2018 01:00:00 20,5 14,4 15,0 23,2 20,2 4 2 12 6 SE 1018,0 33 0 0,0
21.08.2018 00:00:00 21,2 12,9 16,2 23,3 20,2 4 2 12 6 NNW 1018,0 32 0 0,0
20.08.2018 23:00:00 21,4 12,5 16,2 23,3 20,2 3 2 9 5 NE 1018,1 30 0 0,0
20.08.2018 22:00:00 22,0 12,8 18,0 23,2 20,2 8 4 22 12 ESE 1017,9 32 0 0,0
20.08.2018 21:00:00 24,9 12,5 23,2 23,1 20,2 17 9 26 14 N 1017,0 33 15 0,0
20.08.2018 20:00:00 26,7 12,7 26,6 23,0 20,2 18 10 34 19 N 1016,6 33 60 0,0
20.08.2018 19:00:00 27,9 13,0 30,7 22,7 20,2 21 11 35 19 NNW 1015,8 35 57 0,0
20.08.2018 18:00:00 28,6 12,5 33,8 22,5 20,2 21 11 34 19 NNW 1015,7 30 60 0,0
20.08.2018 17:00:00 29,1 12,5 35,6 22,3 20,2 19 10 36 19 N 1016,0 31 60 0,0
20.08.2018 16:00:00 29,0 12,8 36,0 22,1 20,2 18 10 37 20 NNW 1016,5 33 60 0,0
20.08.2018 15:00:00 28,8 12,7 35,9 21,9 20,2 22 12 41 22 NW 1017,0 32 60 0,0
20.08.2018 14:00:00 28,0 12,4 34,4 21,9 20,2 21 11 38 20 NNW 1017,8 36 60 0,0
20.08.2018 13:00:00 27,1 12,3 32,8 21,8 20,2 22 12 34 19 NNW 1018,3 41 60 0,0
20.08.2018 12:00:00 26,7 12,7 31,9 21,9 20,2 13 7 27 14 WNW 1018,5 49 60 0,0
20.08.2018 11:00:00 24,0 14,7 29,8 21,9 20,2 7 4 16 9 SW 1019,0 35 60 0,0
20.08.2018 10:00:00 21,6 13,8 27,2 22,1 20,2 4 2 11 6 WSW 1019,5 27 60 0,0
20.08.2018 09:00:00 19,0 13,2 21,0 22,2 20,2 3 2 8 5 WSW 1019,9 34 60 0,0
20.08.2018 08:00:00 16,8 13,1 11,8 22,3 20,2 3 1 6 4 E 1020,1 34 50 0,0
20.08.2018 07:00:00 14,4 11,7 11,2 22,5 20,2 4 2 10 5 E 1020,0 25 0 0,0
20.08.2018 06:00:00 14,8 11,8 11,4 22,6 20,2 4 2 9 5 ESE 1019,9 27 0 0,0
20.08.2018 05:00:00 15,2 12,0 11,4 22,8 20,2 2 1 8 5 WSW 1019,8 32 0 0,0
20.08.2018 04:00:00 16,7 11,6 13,7 22,9 20,2 4 2 13 7 E 1019,8 32 0 0,0
20.08.2018 03:00:00 16,3 12,5 12,9 23,0 20,2 9 5 12 7 ESE 1020,2 31 0 0,0
20.08.2018 02:00:00 17,0 12,1 13,3 23,1 20,2 5 3 9 5 ESE 1020,3 28 0 0,0
20.08.2018 01:00:00 17,8 12,0 13,6 23,2 20,2 3 1 6 4 E 1020,5 31 0 0,0
20.08.2018 00:00:00 20,5 11,7 16,0 23,2 20,2 3 2 9 5 SSE 1020,2 44 0 0,0
19.08.2018 23:00:00 22,9 10,7 18,8 23,2 20,2 2 1 16 9 NNW 1019,8 37 0 0,0
19.08.2018 22:00:00 22,9 11,3 17,5 23,1 20,2 4 2 17 9 NNW 1019,7 36 0 0,0
19.08.2018 21:00:00 24,4 11,7 21,1 23,0 20,2 6 3 14 8 WNW 1019,1 37 16 0,0
19.08.2018 20:00:00 26,1 12,5 26,6 22,9 20,2 8 5 26 14 NW 1018,5 33 60 0,0
19.08.2018 19:00:00 27,0 13,0 29,8 22,7 20,2 13 7 29 16 NNW 1018,2 25 58 0,0
19.08.2018 18:00:00 27,6 12,8 32,9 22,5 20,2 16 9 32 17 NNW 1018,4 25 60 0,0
19.08.2018 17:00:00 27,8 13,0 34,6 22,3 20,2 18 10 41 22 NW 1018,6 25 60 0,0
19.08.2018 16:00:00 27,6 12,8 35,1 22,1 20,2 16 9 32 17 NNW 1019,1 25 60 0,0
19.08.2018 15:00:00 27,1 13,4 34,3 21,9 20,2 14 8 30 16 NNW 1019,8 23 60 0,0
19.08.2018 14:00:00 26,1 13,6 32,2 21,8 20,2 16 9 34 18 N 1020,1 24 60 0,0
19.08.2018 13:00:00 25,0 13,2 30,9 21,8 20,2 19 10 31 17 NNW 1020,7 30 60 0,0
19.08.2018 12:00:00 24,2 14,0 30,4 21,8 20,2 10 5 19 11 NW 1021,0 43 60 0,0
19.08.2018 11:00:00 22,5 13,3 27,6 21,9 20,2 9 5 21 11 SW 1021,6 19 60 0,0
19.08.2018 10:00:00 20,2 12,2 24,8 22,1 20,2 6 4 14 8 WSW 1022,0 29 60 0,0
19.08.2018 09:00:00 18,1 11,2 20,7 22,2 20,2 6 3 10 5 W 1022,1 30 60 0,0
19.08.2018 08:00:00 16,0 12,0 11,6 22,3 20,2 2 1 7 4 W 1022,2 23 53 0,0
19.08.2018 07:00:00 14,2 11,5 11,3 22,5 20,2 3 2 9 5 SE 1022,2 25 0 0,0
19.08.2018 06:00:00 14,9 11,7 11,4 22,6 20,2 3 2 6 3 S 1021,9 29 0 0,0
19.08.2018 05:00:00 15,5 11,9 12,5 22,7 20,2 4 2 8 5 SE 1021,7 29 0 0,0
19.08.2018 04:00:00 16,8 12,1 13,7 22,8 20,2 5 3 8 4 S 1021,5 32 0 0,0
19.08.2018 03:00:00 18,1 12,1 14,2 22,9 20,2 3 1 10 5 S 1021,0 29 0 0,0
19.08.2018 02:00:00 19,6 11,6 16,3 23,0 20,2 3 2 15 8 N 1020,9 54 0 0,0
19.08.2018 01:00:00 19,7 12,0 18,0 23,0 20,2 6 4 10 5 SSW 1020,9 33 0 0,0
19.08.2018 00:00:00 19,7 12,5 16,8 23,1 20,2 6 3 17 9 SSE 1021,0 35 0 0,0
18.08.2018 23:00:00 21,6 10,7 18,2 23,1 20,2 4 2 11 6 SE 1020,5 39 0 0,0
18.08.2018 22:00:00 22,2 11,6 20,4 23,0 20,2 2 1 13 7 SE 1020,6 38 0 0,0
18.08.2018 21:00:00 23,1 12,1 22,2 22,9 20,2 13 7 27 15 NNW 1020,2 37 18 0,0
18.08.2018 20:00:00 24,2 12,5 24,8 22,8 20,2 14 7 27 15 N 1019,4 20 60 0,0
18.08.2018 19:00:00 25,3 13,2 28,5 22,6 20,2 18 10 29 16 NNW 1018,7 22 60 0,0
18.08.2018 18:00:00 25,7 13,2 30,6 22,4 20,2 18 10 34 19 NNW 1018,6 19 60 0,0
18.08.2018 17:00:00 26,0 13,5 29,7 22,2 20,3 22 12 39 21 NNW 1018,7 15 56 0,0
18.08.2018 16:00:00 25,7 13,9 30,3 22,1 20,3 20 11 39 21 NNW 1019,0 17 55 0,0
18.08.2018 15:00:00 25,6 14,7 30,0 21,9 20,3 20 11 40 22 NNW 1019,4 19 51 0,0
18.08.2018 14:00:00 24,2 15,1 27,4 21,9 20,3 18 10 31 17 NNW 1020,1 22 35 0,0
18.08.2018 13:00:00 22,8 14,6 25,7 21,8 20,3 14 8 29 16 NNW 1020,6 17 46 0,0
18.08.2018 12:00:00 21,6 14,3 25,4 21,9 20,3 13 7 27 15 NNW 1020,8 18 51 0,0
18.08.2018 11:00:00 19,6 14,0 22,7 21,9 20,3 8 4 19 10 NW 1021,3 20 10 0,0
18.08.2018 10:00:00 19,1 13,7 21,6 22,0 20,3 6 4 17 9 NW 1021,2 26 1 0,0
18.08.2018 09:00:00 18,2 13,3 18,3 22,1 20,2 4 2 11 6 NW 1021,1 31 47 0,0
18.08.2018 08:00:00 17,0 13,1 16,4 22,2 20,3 0 0 13 7 N 1021,0 30 44 0,0
18.08.2018 07:00:00 17,0 13,5 16,1 22,3 20,3 4 2 15 8 N 1020,6 25 0 0,0
18.08.2018 06:00:00 17,4 14,3 16,5 22,4 20,3 6 4 17 9 N 1020,0 22 0 0,0
18.08.2018 05:00:00 17,9 15,2 16,5 22,5 20,3 4 2 13 7 W 1019,6 18 0 0,0
18.08.2018 04:00:00 17,9 15,3 16,3 22,5 20,3 5 3 10 6 NNE 1019,5 18 0 0,0
18.08.2018 03:00:00 18,7 15,8 17,7 22,6 20,3 5 3 20 11 N 1019,2 18 0 0,0
18.08.2018 02:00:00 19,1 16,0 18,2 22,7 20,3 4 2 21 11 NNW 1019,5 22 0 0,0
18.08.2018 01:00:00 19,7 16,0 19,0 22,8 20,3 6 3 22 12 NW 1019,5 30 0 0,0
18.08.2018 00:00:00 19,9 15,3 18,4 22,9 20,3 9 5 23 12 WNW 1019,1 30 0 0,0
17.08.2018 23:00:00 19,3 15,6 16,8 22,9 20,3 8 4 11 6 W 1019,0 26 0 0,0
17.08.2018 22:00:00 19,7 15,6 16,8 22,9 20,3 3 1 10 5 NW 1018,7 27 0 0,0
17.08.2018 21:00:00 20,3 15,3 17,0 22,9 20,3 2 1 18 10 E 1017,9 13 0 0,0
17.08.2018 20:00:00 21,5 15,3 20,7 22,8 20,3 8 5 32 17 NNW 1017,4 35 12 0,0
17.08.2018 19:00:00 23,0 15,1 26,5 22,7 20,3 13 7 29 15 N 1017,0 40 57 0,0
17.08.2018 18:00:00 22,7 16,3 24,8 22,5 20,3 14 8 34 18 N 1016,9 38 0 0,0
17.08.2018 17:00:00 22,7 14,8 24,6 22,4 20,3 19 10 35 19 NNW 1016,7 32 0 0,0
17.08.2018 16:00:00 24,3 15,5 27,1 22,2 20,3 19 10 31 17 NNW 1016,4 40 17 0,0
17.08.2018 15:00:00 24,8 16,8 28,2 22,1 20,3 14 8 26 14 N 1016,1 37 40 0,0
17.08.2018 14:00:00 24,4 16,9 28,8 22,1 20,3 10 5 19 10 NE 1016,5 33 40 0,0
17.08.2018 13:00:00 23,6 16,6 26,8 22,1 20,3 9 5 19 10 NE 1016,9 37 25 0,0
17.08.2018 12:00:00 21,8 16,5 22,4 22,2 20,3 6 3 15 8 NE 1017,3 30 0 0,0
17.08.2018 11:00:00 20,7 16,7 19,2 22,2 20,3 7 4 13 7 NE 1017,3 33 7 0,0
17.08.2018 10:00:00 18,8 16,8 17,6 22,3 20,3 10 6 16 9 ESE 1016,9 20 0 1,8
17.08.2018 09:00:00 19,6 15,9 19,3 22,4 20,3 8 4 13 7 SE 1016,2 5 0 0,0
17.08.2018 08:00:00 18,8 16,0 16,6 22,6 20,3 9 5 16 9 E 1015,8 28 29 0,0
17.08.2018 07:00:00 16,8 15,0 15,0 22,7 20,3 12 7 16 8 E 1016,1 18 0 0,0
17.08.2018 06:00:00 16,9 14,5 14,8 22,8 20,3 8 4 10 6 ESE 1015,5 23 0 0,0
17.08.2018 05:00:00 17,1 14,2 14,5 23,0 20,3 8 4 11 6 E 1015,1 24 0 0,0
17.08.2018 04:00:00 17,4 13,7 14,4 23,1 20,3 6 3 12 7 ENE 1014,8 34 0 0,0
17.08.2018 03:00:00 17,9 14,0 15,4 23,2 20,3 9 5 12 7 E 1014,7 46 0 0,0
17.08.2018 02:00:00 21,6 11,6 18,0 23,3 20,3 6 3 21 12 NW 1014,2 56 0 0,0
17.08.2018 01:00:00 22,2 11,3 17,5 23,4 20,3 5 3 14 8 SE 1014,5 59 0 0,0
17.08.2018 00:00:00 21,7 13,3 17,4 23,4 20,3 5 3 11 6 NNE 1014,5 54 0 0,0
16.08.2018 23:00:00 22,0 14,1 17,8 23,4 20,3 5 3 10 5 N 1014,1 60 0 0,0
16.08.2018 22:00:00 22,5 14,3 18,3 23,3 20,3 3 2 11 6 N 1013,8 51 0 0,0
16.08.2018 21:00:00 23,5 13,9 19,9 23,3 20,3 5 3 16 9 N 1013,2 50 0 0,0
16.08.2018 20:00:00 26,7 12,7 24,0 23,1 20,3 4 2 27 15 S 1012,5 50 36 0,0
16.08.2018 19:00:00 28,7 13,0 29,7 22,9 20,3 13 7 26 14 SW 1012,1 42 52 0,0
16.08.2018 18:00:00 29,0 12,8 31,8 22,6 20,3 14 8 32 17 S 1012,6 29 60 0,0
16.08.2018 17:00:00 29,3 15,1 32,5 22,3 20,3 19 11 34 19 SSW 1012,8 20 60 0,0
16.08.2018 16:00:00 29,6 15,7 34,5 22,0 20,3 13 7 28 15 SSW 1012,9 20 60 0,0
16.08.2018 15:00:00 29,3 15,4 35,0 21,8 20,3 11 6 31 17 SSW 1013,6 35 60 0,0
16.08.2018 14:00:00 27,7 15,4 35,1 21,7 20,3 12 7 25 14 W 1014,3 40 60 0,0
16.08.2018 13:00:00 27,5 15,8 33,1 21,6 20,3 7 4 19 10 SSW 1014,6 20 60 0,0
16.08.2018 12:00:00 26,2 14,3 31,3 21,7 20,3 6 3 18 10 NE 1015,5 25 60 0,0
16.08.2018 11:00:00 24,6 14,7 27,6 21,7 20,3 4 2 23 12 E 1015,8 25 60 0,0
16.08.2018 10:00:00 22,3 15,2 26,2 21,8 20,3 11 6 16 9 E 1016,4 24 60 0,0
16.08.2018 09:00:00 20,2 15,2 21,0 22,0 20,3 3 2 7 4 ESE 1017,0 22 60 0,0
16.08.2018 08:00:00 15,5 14,2 12,0 22,2 20,3 0 0 6 3 N 1017,8 16 57 0,0
16.08.2018 07:00:00 13,4 12,3 10,0 22,3 20,4 4 2 13 7 WNW 1018,2 19 0 0,0
16.08.2018 06:00:00 13,6 12,3 11,3 22,5 20,4 7 4 12 6 ENE 1017,8 17 0 0,0
16.08.2018 05:00:00 13,9 12,6 11,2 22,6 20,3 5 3 10 5 E 1017,9 21 0 0,0
16.08.2018 04:00:00 14,6 13,1 12,0 22,7 20,3 8 4 12 6 ENE 1018,0 23 0 0,0
16.08.2018 03:00:00 14,7 13,1 11,9 22,9 20,4 7 4 10 5 E 1018,2 25 0 0,0
16.08.2018 02:00:00 15,8 13,3 12,5 23,0 20,4 6 3 9 5 SE 1018,1 31 0 0,0
16.08.2018 01:00:00 17,0 13,5 13,8 23,0 20,4 5 3 13 7 ESE 1018,1 37 0 0,0
16.08.2018 00:00:00 18,1 13,6 15,0 23,1 20,3 7 4 12 6 ESE 1018,0 42 0 0,0
15.08.2018 23:00:00 20,6 13,3 16,8 23,1 20,4 6 3 10 5 S 1017,5 25 0 0,0
15.08.2018 22:00:00 21,4 13,3 18,6 23,0 20,4 4 2 20 11 N 1017,6 42 0 0,0
15.08.2018 21:00:00 22,5 13,8 20,5 22,9 20,4 11 6 22 12 N 1017,1 43 23 0,0
15.08.2018 20:00:00 24,9 13,8 25,4 22,7 20,4 17 9 31 17 NNW 1016,7 39 60 0,0
15.08.2018 19:00:00 26,0 14,1 29,0 22,5 20,4 21 11 29 16 NNW 1016,5 22 58 0,0
15.08.2018 18:00:00 26,7 14,1 32,3 22,3 20,4 16 9 32 17 NNW 1016,7 22 58 0,0
15.08.2018 17:00:00 27,0 14,4 29,0 22,0 20,4 18 10 31 17 NNW 1016,9 38 52 0,0
15.08.2018 16:00:00 26,8 14,2 30,5 21,8 20,4 15 8 51 27 N 1017,1 50 52 0,0
15.08.2018 15:00:00 25,8 13,6 28,0 21,6 20,4 13 7 37 20 N 1017,8 18 46 0,0
15.08.2018 14:00:00 25,1 14,5 28,2 21,5 20,4 16 9 28 15 NNW 1018,3 39 53 0,0
15.08.2018 13:00:00 23,8 12,4 30,9 21,4 20,4 16 8 28 15 N 1018,7 47 60 0,0
15.08.2018 12:00:00 23,4 12,7 29,0 21,4 20,4 17 9 38 20 NNW 1018,9 48 60 0,0
15.08.2018 11:00:00 22,7 14,0 28,5 21,5 20,4 11 6 20 11 N 1019,3 44 60 0,0
15.08.2018 10:00:00 19,8 13,5 26,5 21,6 20,4 6 3 16 9 NNW 1019,7 43 60 0,0
15.08.2018 09:00:00 18,2 12,6 23,6 21,8 20,4 3 2 7 4 NNW 1019,9 40 60 0,0
15.08.2018 08:00:00 16,0 13,5 12,5 21,9 20,4 3 1 9 5 SSE 1020,0 27 58 0,0
15.08.2018 07:00:00 13,4 11,6 10,6 22,1 20,4 4 2 8 5 ESE 1020,3 30 0 0,0
15.08.2018 06:00:00 13,8 12,0 10,9 22,2 20,4 3 2 10 6 ESE 1020,0 32 0 0,0

tt = Température de l'air
td = dewpoint
tt 5cm = Température de l'air 5cm
tt -20cm = Température de l'air -20cm
tt -100cm = Température de l'air -100cm
ff = Vitesse du vent
fx = gusts
dd = Direction du vent
ppp = reduced air pressure
vv = visibility
sd = Ensoleillement
rr = Quantités de précipitations

stations d'obs. à proximité